Back to catalog

STARLINK-35785

AliveCommunicationsVLEO
NORAD 67176·PAYLOAD·🇺🇸 United States

Launched Dec 17, 2025 from Cape Canaveral Space Force Station

Loading…

Next Passes (next 24 hours)

TLE

FreshSource: CelesTrak SupGP

Epoch: Sep 15, 2026, 02:44 UTC

1 67176C 25303P   26258.11437500  .00044817  00000+0  16229-2 0  2587
2 67176  43.0032 320.9649 0001573 264.4958 143.6603 15.27563135    10

Track STARLINK-35785 in real time with AllMySat

Download on the App Store